Location: Boiro
(42.6475°N, 8.8834°W)
Time: 08:45:08
(UTC+02:00)

First-Move - Pass Details

Date: 18 April 2024
Orbit: 538 x 600 km, 97.7° (Epoch: 20 May)

Event Time Altitude Azimuth Distance (km) Brightness Sun altitude
Rises 05:44:50 0° 17° (NNE) 2,859 ? -21.0°
Reaches altitude 10° 05:47:03 10° 21° (NNE) 1,958 ? -20.7°
Maximum altitude 05:51:14 55° 100° (E) 732 ? -20.1°
Enters shadow 05:53:41 23° 170° (S) 1,286 ? -19.7°
